BEIJING 1 1 28890U 05043A 26175.32931147 .00000042 00000+0 17519-4 0 9992 2 28890 98.2921 308.5822 0013269 258.8776 101.0934 14.63534969101697 HUANJING 1A (HJ-1A) 1 33320U 08041A 26176.19016860 .00001505 00000+0 18624-3 0 9991 2 33320 97.6686 161.7190 0020523 110.1140 250.2285 14.84003507959593 HUANJING 1B (HJ-1B) 1 33321U 08041B 26176.23034503 .00000228 00000+0 33834-4 0 9993 2 33321 97.6522 164.9050 0036764 154.6112 205.6919 14.83327130959609 YAOGAN-4 1 33446U 08061A 26174.77843894 .00000736 00000+0 96595-4 0 9998 2 33446 97.9306 108.2400 0015497 53.0026 307.2604 14.83210614946644 DEIMOS-1 1 35681U 09041A 26176.18994093 .00000104 00000+0 22349-4 0 9990 2 35681 97.7413 333.0709 0002152 121.3378 238.8043 14.75242781908068 UK-DMC 2 1 35683U 09041C 26176.15723098 .00001137 00000+0 17209-3 0 9999 2 35683 97.8842 310.9294 0001128 92.1578 267.9761 14.76061830907748 DMC3-FM1 1 40715U 15032A 26176.15241356 .00000025 00000+0 87505-5 0 9993 2 40715 97.6459 41.0147 0006668 38.3792 321.7897 14.85744485591095 DMC3-FM2 1 40716U 15032B 26176.17443584 .00000497 00000+0 63155-4 0 9990 2 40716 97.6512 42.6148 0007185 42.4680 317.7090 14.85750779591094 DMC3-FM3 1 40717U 15032C 26176.19781760 .00001087 00000+0 13104-3 0 9998 2 40717 97.6564 44.3957 0006430 44.3089 315.8641 14.85743037591107